Location: Marcé
(47.5801°N, 0.3280°W)
Time: 09:57:08
(UTC+01:00)

Tiros 1 despin weight - Pass Details

Date: 12 December 2021
Orbit: 592 x 641 km, 48.2° (Epoch: 25 January)

Event Time Altitude Azimuth Distance (km) Brightness Sun altitude
Rises 10:04:36 0° 203° (SSW) 2,868 ? 9.6°
Reaches altitude 10° 10:07:27 10° 185° (S) 1,957 ? 9.9°
Maximum altitude 10:10:36 19° 140° (SE) 1,458 ? 10.2°
Drops below altitude 10° 10:13:43 10° 96° (E) 1,944 ? 10.6°
Sets 10:16:32 0° 78° (ENE) 2,842 ? 10.8°
